KC3QJO Weather Reports


time (UTC)temp
F
wind
direction
speed
knots
gust
knots
rain 1hr
in
rain 24hr
in
rain mn
in
humidity
%
barometer
mb
20260506051052 66 210 6.1 13.0 0.00 0.04 0.00 59 1008.7
20260506050551 66 200 7.0 13.0 0.00 0.04 0.00 59 1008.7
20260506050104 66 211 6.1 10.4 0.00 0.04 0.00 59 1008.6
20260506045051 66 183 5.2 11.3 0.00 0.04 0.00 58 1008.8
20260506044555 66 175 5.2 11.3 0.00 0.04 0.00 58 1008.7
20260506044053 67 200 5.2 8.7 0.00 0.04 0.00 58 1008.7
20260506043551 66 182 4.3 8.7 0.00 0.04 0.00 57 1008.7
20260506043054 67 197 4.3 10.4 0.00 0.04 0.00 57 1008.7
20260506042551 67 211 5.2 10.4 0.00 0.04 0.00 56 1008.8
20260506042052 67 170 4.3 11.3 0.00 0.04 0.00 56 1008.9
20260506041556 67 177 5.2 13.9 0.00 0.04 0.00 56 1008.8
20260506041052 68 181 7.0 13.9 0.00 0.04 0.00 55 1008.7
20260506040551 68 158 6.1 11.3 0.00 0.04 0.00 55 1008.8
20260506040056 68 227 7.0 11.3 0.00 0.04 0.00 54 1008.7
20260506035555 68 200 6.1 12.2 0.00 0.04 0.04 54 1008.7
20260506035052 68 187 7.0 12.2 0.00 0.04 0.04 54 1008.8
20260506034613 68 181 5.2 12.2 0.00 0.04 0.04 54 1008.8
20260506034054 68 204 6.1 12.2 0.00 0.04 0.04 53 1008.8
20260506033551 68 200 5.2 12.2 0.00 0.04 0.04 53 1008.7
20260506033054 68 194 6.1 12.2 0.00 0.04 0.04 52 1008.6
20260506032554 68 204 6.1 11.3 0.00 0.04 0.04 52 1008.7
20260506032053 69 216 6.1 11.3 0.00 0.04 0.04 51 1008.7
20260506031607 69 191 6.1 11.3 0.00 0.04 0.04 51 1008.7
20260506031052 69 184 5.2 12.2 0.00 0.04 0.04 51 1008.7
20260506030550 69 217 5.2 14.8 0.00 0.04 0.04 51 1008.6
20260506030053 69 160 5.2 14.8 0.00 0.04 0.04 50 1008.7
20260506025553 69 179 7.0 14.8 0.00 0.04 0.04 50 1008.6
20260506025051 69 203 5.2 13.9 0.00 0.04 0.04 50 1008.6
20260506024616 70 165 7.0 13.9 0.00 0.04 0.04 49 1008.7
20260506024051 70 205 4.3 14.8 0.00 0.04 0.04 49 1008.7
20260506023554 70 173 7.8 14.8 0.00 0.04 0.04 48 1008.8
20260506023100 70 187 7.0 13.9 0.00 0.04 0.04 48 1008.8
20260506022553 70 215 6.1 13.9 0.00 0.04 0.04 48 1008.8
20260506022051 70 195 5.2 12.2 0.00 0.04 0.04 48 1008.8
20260506021559 71 188 6.1 13.9 0.00 0.04 0.04 47 1008.8
20260506021054 71 204 4.3 13.9 0.00 0.04 0.04 47 1008.7
20260506020554 71 205 5.2 14.8 0.00 0.04 0.04 46 1008.7
20260506015551 72 201 7.8 16.5 0.00 0.04 0.04 45 1008.6
20260506015051 72 166 8.7 16.5 0.00 0.04 0.04 45 1008.6
20260506014559 72 189 7.0 17.4 0.00 0.04 0.04 45 1008.5
20260506014055 72 168 9.6 17.4 0.00 0.04 0.04 44 1008.5
20260506013555 72 204 6.1 13.0 0.00 0.04 0.04 44 1008.4
20260506013110 72 206 6.1 13.0 0.00 0.04 0.04 43 1008.3
20260506012553 73 230 7.0 20.9 0.00 0.04 0.04 43 1008.2
20260506012050 73 178 7.8 23.5 0.00 0.04 0.04 42 1008.1
20260506011610 73 189 8.7 23.5 0.00 0.04 0.04 42 1008.0
20260506011051 72 202 7.0 13.9 0.00 0.04 0.04 43 1008.0
20260506010551 73 199 7.0 16.5 0.00 0.04 0.04 43 1008.0
20260506010058 73 155 7.0 16.5 0.00 0.04 0.04 42 1007.9
20260506005552 73 212 7.0 13.0 0.00 0.04 0.04 42 1007.8
20260506005053 73 202 7.0 11.3 0.00 0.04 0.04 41 1007.8
20260506004554 73 207 6.1 11.3 0.00 0.04 0.04 41 1007.7
20260506004051 73 189 4.3 11.3 0.00 0.04 0.04 41 1007.8
20260506003551 73 202 4.3 14.8 0.00 0.04 0.04 41 1007.7
20260506003053 74 169 6.1 14.8 0.00 0.04 0.04 41 1007.5
20260506002551 74 224 7.8 17.4 0.00 0.04 0.04 40 1007.5
20260506002051 74 169 7.0 17.4 0.00 0.04 0.04 40 1007.5
20260506001555 74 183 7.0 15.6 0.00 0.04 0.04 40 1007.4
20260506001051 74 170 8.7 18.2 0.00 0.04 0.04 40 1007.3
20260506000551 74 218 8.7 18.2 0.00 0.04 0.04 40 1007.3
20260506000052 74 210 7.0 16.5 0.00 0.04 0.04 40 1007.4
20260505235551 75 208 8.7 17.4 0.00 0.04 0.04 39 1007.3
20260505235052 75 168 7.8 17.4 0.00 0.04 0.04 39 1007.2
20260505234552 75 184 6.1 16.5 0.00 0.04 0.04 38 1007.2
20260505234051 75 216 7.0 18.2 0.00 0.04 0.04 37 1007.1
20260505233554 75 151 10.4 20.9 0.00 0.04 0.04 37 1007.2
20260505233055 75 173 8.7 20.9 0.00 0.04 0.04 37 1007.1
20260505232552 76 192 11.3 20.9 0.00 0.04 0.04 38 1007.3
20260505232058 76 216 7.0 18.2 0.00 0.04 0.04 38 1007.2
20260505231556 76 204 8.7 23.5 0.00 0.04 0.04 37 1007.2
20260505231054 76 218 9.6 23.5 0.00 0.04 0.04 37 1007.1
20260505230551 76 204 10.4 21.7 0.00 0.04 0.04 37 1007.0
20260505230104 76 201 9.6 22.6 0.00 0.04 0.04 37 1007.1
20260505225551 76 170 13.0 23.5 0.00 0.04 0.04 36 1007.0
20260505225052 77 211 11.3 24.3 0.00 0.04 0.04 37 1006.9
20260505224600 77 152 11.3 24.3 0.00 0.04 0.04 36 1006.8
20260505224051 77 207 10.4 22.6 0.00 0.04 0.04 37 1006.8
20260505223553 77 215 11.3 20.9 0.00 0.04 0.04 37 1006.8
20260505223108 77 171 9.6 23.5 0.00 0.04 0.04 37 1006.8
20260505222554 77 216 11.3 23.5 0.00 0.04 0.04 37 1006.7
20260505222054 77 189 10.4 21.7 0.00 0.04 0.04 37 1006.7
20260505221555 77 182 10.4 20.0 0.00 0.04 0.04 37 1006.6
20260505221056 77 191 7.8 18.2 0.00 0.04 0.04 38 1006.6
20260505220557 77 173 7.8 16.5 0.00 0.04 0.04 38 1006.6
20260505220108 77 171 9.6 21.7 0.00 0.04 0.04 38 1006.6
20260505215555 77 220 9.6 21.7 0.00 0.04 0.04 37 1006.7
20260505215051 77 179 9.6 28.7 0.00 0.04 0.04 37 1006.6
20260505214553 77 173 13.0 28.7 0.00 0.04 0.04 36 1006.6
20260505214051 78 162 12.2 23.5 0.00 0.04 0.04 36 1006.8
20260505213555 78 175 7.8 23.5 0.00 0.04 0.04 37 1006.7
20260505213100 78 183 12.2 23.5 0.00 0.04 0.04 36 1006.7
20260505212554 78 213 11.3 26.9 0.00 0.04 0.04 37 1006.7
20260505212051 78 219 10.4 26.9 0.00 0.04 0.04 36 1006.7
20260505211559 78 177 13.0 24.3 0.00 0.04 0.04 36 1006.8
20260505211051 78 164 8.7 24.3 0.00 0.04 0.04 36 1006.8
20260505210550 78 207 11.3 24.3 0.00 0.04 0.04 37 1006.7
20260505210058 78 152 12.2 22.6 0.00 0.04 0.04 36 1006.7
20260505205554 78 214 12.2 20.9 0.00 0.04 0.04 35 1006.6
20260505205052 78 189 8.7 22.6 0.00 0.04 0.04 35 1006.6
20260505204601 78 221 12.2 22.6 0.00 0.04 0.04 35 1006.6
20260505204051 78 208 10.4 22.6 0.00 0.04 0.04 37 1006.5
20260505203551 77 254 7.8 24.3 0.00 0.04 0.04 36 1006.5
20260505203100 77 208 13.9 24.3 0.00 0.04 0.04 35 1006.6
20260505202551 78 208 12.2 19.1 0.00 0.04 0.04 36 1006.4
20260505202052 78 209 10.4 21.7 0.00 0.04 0.04 35 1006.5
20260505201559 79 204 7.0 21.7 0.00 0.04 0.04 36 1006.5
20260505201051 78 182 11.3 22.6 0.00 0.04 0.04 38 1006.7
20260505200556 78 199 12.2 22.6 0.00 0.04 0.04 37 1006.7
20260505200054 78 211 10.4 22.6 0.00 0.04 0.04 37 1006.8
20260505195553 79 207 10.4 27.8 0.00 0.04 0.04 36 1006.8
20260505195052 79 162 8.7 27.8 0.00 0.04 0.04 36 1006.8
20260505194605 79 219 12.2 21.7 0.00 0.04 0.04 36 1006.7
20260505194055 79 249 7.0 20.0 0.00 0.04 0.04 37 1006.8
20260505193551 78 216 8.7 20.0 0.00 0.04 0.04 36 1006.8
20260505193056 78 169 8.7 21.7 0.00 0.04 0.04 36 1006.8
20260505192550 78 179 8.7 24.3 0.00 0.04 0.04 36 1006.8
20260505192051 78 199 14.8 24.3 0.00 0.04 0.04 37 1006.9
20260505191558 78 204 10.4 22.6 0.00 0.04 0.04 36 1006.9
20260505191051 79 225 10.4 19.1 0.00 0.04 0.04 36 1007.0
20260505190555 79 211 8.7 17.4 0.00 0.04 0.04 36 1006.9
20260505190053 79 214 11.3 18.2 0.00 0.04 0.04 36 1007.1
20260505185554 79 193 9.6 18.2 0.00 0.04 0.04 36 1007.3
20260505185051 79 191 6.1 13.9 0.00 0.04 0.04 36 1007.3
20260505184555 80 200 6.1 20.9 0.00 0.04 0.04 33 1007.3
20260505184051 80 207 11.3 20.9 0.00 0.04 0.04 33 1007.4
20260505183555 80 245 7.0 25.2 0.00 0.04 0.04 34 1007.6
20260505183101 80 258 8.7 25.2 0.00 0.04 0.04 33 1007.5
20260505182554 79 206 8.7 20.9 0.00 0.04 0.04 34 1007.6
20260505182051 79 245 10.4 20.9 0.00 0.04 0.04 35 1007.6
20260505181555 79 206 9.6 22.6 0.00 0.04 0.04 34 1007.6
20260505181051 79 189 10.4 22.6 0.00 0.04 0.04 36 1007.7
20260505180550 79 178 11.3 20.9 0.00 0.04 0.04 35 1007.7
20260505180056 79 189 7.0 16.5 0.00 0.04 0.04 36 1007.9
20260505175550 79 237 6.1 16.5 0.00 0.04 0.04 39 1008.0
20260505175054 78 206 9.6 18.2 0.00 0.04 0.04 37 1008.0
20260505174557 78 259 9.6 20.9 0.00 0.04 0.04 38 1007.9
20260505174054 79 214 8.7 20.9 0.00 0.04 0.04 36 1007.9
20260505173551 79 229 7.0 14.8 0.00 0.04 0.04 38 1008.0
20260505173056 78 273 6.1 14.8 0.00 0.04 0.04 41 1008.0
20260505172551 79 237 7.0 14.8 0.00 0.04 0.04 39 1008.2
20260505172051 78 204 7.0 13.9 0.00 0.04 0.04 41 1008.2
20260505171555 79 156 5.2 13.0 0.00 0.04 0.04 40 1008.2
20260505171053 79 219 3.5 13.0 0.00 0.04 0.04 40 1008.1
20260505170550 78 216 6.1 13.9 0.00 0.04 0.04 42 1008.2
20260505170057 78 233 3.5 13.9 0.00 0.04 0.04 43 1008.3
20260505165551 78 181 4.3 17.4 0.00 0.04 0.04 43 1008.5
20260505165051 77 206 7.0 17.4 0.00 0.04 0.04 44 1008.6
20260505164601 77 199 4.3 15.6 0.00 0.04 0.04 43 1008.6
20260505164051 77 193 7.0 15.6 0.00 0.04 0.04 42 1008.7
20260505163550 77 241 6.1 15.6 0.00 0.04 0.04 43 1008.8
20260505163100 77 166 6.1 15.6 0.00 0.04 0.04 43 1008.8
20260505162557 78 215 2.6 13.0 0.00 0.04 0.04 43 1008.9
20260505162051 77 204 3.5 13.9 0.00 0.04 0.04 42 1008.9
20260505161553 77 209 3.5 17.4 0.00 0.04 0.04 44 1008.9
20260505161053 77 229 6.1 17.4 0.00 0.04 0.04 42 1008.9
20260505160555 77 191 3.5 15.6 0.00 0.04 0.04 44 1008.9
20260505153109 75 229 2.6 13.0 0.00 0.04 0.04 49 1009.2
20260505152550 74 219 3.5 13.0 0.00 0.04 0.04 48 1009.3
20260505152052 73 206 6.1 11.3 0.00 0.04 0.04 51 1009.4
20260505151557 73 187 5.2 11.3 0.00 0.04 0.04 51 1009.5
20260505151052 73 216 3.5 13.9 0.00 0.04 0.04 51 1009.6
20260505150551 72 210 7.0 16.5 0.00 0.04 0.04 52 1009.6
20260505140551 67 206 4.3 13.9 0.00 0.04 0.04 62 1009.9
20260505140107 67 203 7.0 13.9 0.00 0.04 0.04 61 1010.0
20260505124552 62 219 3.5 7.8 0.00 0.04 0.04 71 1010.1
20260505124051 61 165 5.2 7.8 0.00 0.04 0.04 71 1010.1
20260505123550 61 169 2.6 9.6 0.00 0.04 0.04 73 1010.0
20260505123104 60 219 3.5 9.6 0.00 0.04 0.04 72 1010.1
20260505122554 60 219 4.3 9.6 0.00 0.04 0.04 73 1010.1
20260505122051 60 221 4.3 10.4 0.00 0.04 0.04 74 1010.1
20260505121600 59 207 7.0 10.4 0.00 0.04 0.04 73 1010.2
20260505121054 59 223 5.2 10.4 0.00 0.04 0.04 74 1010.1
20260505120551 59 189 2.6 12.2 0.00 0.04 0.04 76 1010.1
20260505115555 58 204 3.5 7.0 0.00 0.04 0.04 77 1009.9
20260505115051 58 166 1.7 5.2 0.00 0.04 0.04 78 1009.8
20260505114558 58 160 2.6 5.2 0.00 0.04 0.04 78 1009.7
20260505114052 57 174 2.6 5.2 0.00 0.04 0.04 78 1009.8
20260505113553 57 161 0.9 2.6 0.00 0.04 0.04 79 1009.7
20260505113100 57 177 0.0 3.5 0.00 0.04 0.04 80 1009.8
20260505112552 56 177 0.9 3.5 0.00 0.04 0.04 80 1009.7
20260505112054 56 192 0.9 5.2 0.00 0.04 0.04 82 1009.7
20260505111557 55 0 1.7 5.2 0.00 0.04 0.04 82 1009.7
20260505111054 55 166 1.7 5.2 0.00 0.04 0.04 82 1009.7
20260505110552 55 168 1.7 3.5 0.00 0.04 0.04 83 1009.7
20260505102050 53 0 0.9 7.0 0.01 0.04 0.04 82 1009.4
20260505101552 53 181 4.3 7.0 0.01 0.04 0.04 82 1009.4
20260505101051 53 170 1.7 6.1 0.02 0.04 0.04 82 1009.2
20260505100552 54 176 2.6 7.0 0.03 0.04 0.04 82 1009.1
20260505100055 54 205 4.3 7.0 0.03 0.04 0.04 81 1009.1
20260505095555 54 173 3.5 7.8 0.03 0.04 0.04 81 1009.0
20260505095054 54 208 4.3 9.6 0.04 0.04 0.04 82 1009.1
20260505094558 54 187 4.3 9.6 0.04 0.04 0.04 83 1009.0
20260505094051 54 176 5.2 9.6 0.04 0.04 0.04 83 1009.0
20260505093551 54 172 5.2 9.6 0.04 0.04 0.04 83 1009.1
20260505093051 54 183 0.9 2.6 0.03 0.03 0.03 81 1009.1
20260505092551 54 360 0.9 3.5 0.03 0.03 0.03 80 1008.8
20260505092050 55 6 1.7 3.5 0.03 0.03 0.03 79 1009.1
20260505091557 55 10 1.7 2.6 0.03 0.03 0.03 77 1009.4
20260505091050 55 317 0.9 3.5 0.02 0.02 0.02 76 1009.7
20260505090550 56 294 1.7 6.1 0.01 0.01 0.01 76 1009.8
20260505090059 56 272 0.0 8.7 0.01 0.01 0.01 74 1009.6
20260505085551 56 299 2.6 8.7 0.01 0.01 0.01 71 1009.6
20260505085051 56 241 0.9 3.5 0.00 0.00 0.00 68 1009.6
20260505084554 56 243 0.9 2.6 0.00 0.00 0.00 65 1009.7
20260505084054 56 0 0.9 1.7 0.00 0.00 0.00 65 1009.7
20260505083550 56 299 0.0 1.7 0.00 0.00 0.00 64 1009.6
20260505083057 57 0 0.0 1.7 0.00 0.00 0.00 63 1009.3
20260505082553 57 202 0.0 1.7 0.00 0.00 0.00 63 1009.3
20260505082051 57 202 0.9 1.7 0.00 0.00 0.00 62 1009.3
20260505081602 57 0 0.9 1.7 0.00 0.00 0.00 61 1009.1
20260505081051 57 202 0.0 0.9 0.00 0.00 0.00 61 1008.9
20260505080551 57 0 0.0 1.7 0.00 0.00 0.00 61 1008.9
20260505080055 57 0 0.9 3.5 0.00 0.00 0.00 61 1008.9
20260505075553 57 202 0.9 3.5 0.00 0.00 0.00 61 1008.8
20260505075052 57 202 0.9 2.6 0.00 0.00 0.00 61 1008.9
20260505074610 57 211 0.9 2.6 0.00 0.00 0.00 60 1008.8
20260505074051 58 211 0.0 1.7 0.00 0.00 0.00 60 1008.9
20260505073552 58 211 0.0 2.6 0.00 0.00 0.00 60 1008.9
20260505073100 58 211 0.9 2.6 0.00 0.00 0.00 60 1008.9
20260505072551 58 204 0.9 2.6 0.00 0.00 0.00 59 1008.9
20260505072053 58 0 0.9 4.3 0.00 0.00 0.00 59 1008.9
20260505071557 58 198 1.7 4.3 0.00 0.00 0.00 59 1009.0
20260505071051 58 215 1.7 3.5 0.00 0.00 0.00 59 1008.9
20260505070550 58 215 0.9 2.6 0.00 0.00 0.00 58 1008.9
20260505070058 58 210 0.9 3.5 0.00 0.00 0.00 58 1008.9
20260505065554 58 210 0.9 3.5 0.00 0.00 0.00 58 1008.9
20260505065050 58 195 0.9 2.6 0.00 0.00 0.00 58 1008.9
20260505064604 58 204 0.9 2.6 0.00 0.00 0.00 58 1008.9
20260505064051 58 224 0.9 2.6 0.00 0.00 0.00 58 1008.9
20260505063552 58 224 0.9 2.6 0.00 0.00 0.00 58 1009.1
20260505063058 58 0 0.0 2.6 0.00 0.00 0.00 57 1009.1
20260505062552 58 224 0.9 2.6 0.00 0.00 0.00 57 1009.1
20260505062051 58 199 0.0 2.6 0.00 0.00 0.00 56 1009.2
20260505061624 58 0 0.0 5.2 0.00 0.00 0.00 56 1009.2
20260505061051 58 0 0.9 5.2 0.00 0.00 0.00 56 1009.1
20260505060556 58 194 0.9 3.5 0.00 0.00 0.00 56 1009.1
20260505060056 58 210 0.9 3.5 0.00 0.00 0.00 56 1009.2